GFSSE_prec_pwat_156.txt.gz
Precipitable_Water
1.59 1.67 1.44 1.38 1.30 1.24 1.21 1.23 1.26 1.31 1.29 1.23 1.20 1.14 1.09 1.08 1.10 1.12 1.23 1.22 1.22 1.23 1.27 1.22 1.23 1.27 1.29 1.27 1.27 1.28 1.33 1.35 1.38 1.37 1.38 1.45 1.53 1.51 1.43 1.40 1.43 1.48 1.48
1.71 1.75 1.60 1.49 1.40 1.33 1.29 1.28 1.27 1.33 1.35 1.32 1.26 1.20 1.14 1.11 1.13 1.14 1.14 1.14 1.14 1.20 1.21 1.16 1.17 1.21 1.23 1.23 1.24 1.27 1.31 1.32 1.34 1.33 1.37 1.41 1.46 1.49 1.46 1.36 1.43 1.43 1.46
1.75 1.81 1.70 1.62 1.54 1.49 1.42 1.36 1.37 1.38 1.41 1.40 1.32 1.27 1.22 1.19 1.16 1.15 1.13 1.10 1.10 1.14 1.13 1.13 1.16 1.19 1.19 1.20 1.22 1.26 1.29 1.30 1.31 1.32 1.32 1.42 1.45 1.45 1.44 1.37 1.39 1.39 1.49
1.58 1.62 1.64 1.70 1.69 1.63 1.59 1.54 1.50 1.47 1.44 1.46 1.46 1.36 1.30 1.26 1.22 1.17 1.13 1.08 1.07 1.09 1.09 1.13 1.18 1.20 1.18 1.19 1.21 1.21 1.22 1.22 1.24 1.24 1.34 1.34 1.41 1.43 1.41 1.36 1.34 1.39 1.46
1.37 1.44 1.50 1.55 1.59 1.64 1.64 1.61 1.58 1.53 1.49 1.47 1.51 1.45 1.40 1.33 1.25 1.19 1.14 1.09 1.08 1.09 1.11 1.15 1.18 1.17 1.15 1.16 1.17 1.16 1.14 1.15 1.16 1.21 1.32 1.36 1.48 1.45 1.40 1.33 1.33 1.38 1.39
1.25 1.30 1.36 1.41 1.47 1.51 1.58 1.60 1.59 1.58 1.52 1.49 1.47 1.44 1.38 1.34 1.26 1.20 1.16 1.11 1.08 1.11 1.14 1.17 1.18 1.14 1.13 1.13 1.14 1.13 1.11 1.11 1.14 1.29 1.31 1.37 1.44 1.44 1.37 1.30 1.37 1.38 1.42
1.19 1.21 1.24 1.30 1.36 1.43 1.55 1.57 1.59 1.59 1.58 1.53 1.50 1.52 1.45 1.41 1.36 1.28 1.21 1.17 1.14 1.16 1.21 1.21 1.19 1.16 1.16 1.12 1.11 1.09 1.08 1.15 1.19 1.26 1.26 1.33 1.41 1.35 1.37 1.31 1.35 1.34 1.39
1.10 1.14 1.11 1.13 1.23 1.27 1.32 1.40 1.52 1.58 1.61 1.63 1.59 1.54 1.51 1.49 1.46 1.42 1.37 1.29 1.24 1.21 1.21 1.22 1.21 1.19 1.18 1.14 1.12 1.10 1.10 1.14 1.17 1.25 1.27 1.30 1.40 1.31 1.36 1.33 1.35 1.33 1.38
0.87 0.90 0.94 0.96 1.01 1.09 1.17 1.29 1.37 1.46 1.54 1.60 1.65 1.62 1.57 1.56 1.53 1.48 1.44 1.36 1.30 1.25 1.23 1.24 1.23 1.19 1.18 1.16 1.15 1.13 1.13 1.15 1.18 1.23 1.23 1.28 1.34 1.29 1.37 1.33 1.34 1.34 1.38
0.70 0.68 0.68 0.70 0.73 0.80 0.87 1.04 1.20 1.30 1.39 1.50 1.60 1.66 1.62 1.59 1.59 1.62 1.56 1.48 1.39 1.33 1.28 1.28 1.27 1.24 1.19 1.16 1.15 1.16 1.16 1.14 1.15 1.20 1.20 1.27 1.31 1.31 1.34 1.33 1.34 1.38 1.40
0.58 0.56 0.55 0.56 0.56 0.56 0.55 0.63 0.73 0.89 1.04 1.17 1.36 1.49 1.62 1.69 1.69 1.67 1.74 1.70 1.64 1.54 1.43 1.35 1.30 1.26 1.23 1.21 1.15 1.16 1.18 1.15 1.20 1.21 1.18 1.24 1.25 1.29 1.34 1.32 1.35 1.38 1.37
0.48 0.49 0.51 0.53 0.54 0.54 0.53 0.54 0.54 0.55 0.57 0.61 0.76 1.06 1.36 1.49 1.60 1.68 1.66 1.64 1.62 1.62 1.61 1.58 1.45 1.37 1.29 1.22 1.20 1.16 1.15 1.15 1.20 1.20 1.19 1.18 1.17 1.21 1.30 1.35 1.34 1.38 1.37
0.48 0.51 0.53 0.55 0.57 0.55 0.54 0.55 0.56 0.57 0.59 0.59 0.58 0.58 0.62 0.79 1.24 1.51 1.62 1.76 1.77 1.68 1.66 1.63 1.58 1.46 1.38 1.29 1.21 1.21 1.16 1.15 1.16 1.17 1.21 1.18 1.14 1.17 1.25 1.33 1.36 1.38 1.36
0.49 0.51 0.53 0.54 0.54 0.54 0.54 0.53 0.55 0.55 0.56 0.56 0.58 0.60 0.57 0.55 0.58 0.71 1.03 1.41 1.62 1.77 1.71 1.71 1.70 1.67 1.54 1.42 1.30 1.22 1.22 1.16 1.14 1.15 1.19 1.15 1.14 1.14 1.22 1.31 1.34 1.34 1.32
0.47 0.49 0.50 0.51 0.52 0.52 0.52 0.52 0.52 0.52 0.52 0.53 0.53 0.55 0.56 0.56 0.56 0.58 0.58 0.71 0.99 1.31 1.61 1.74 1.71 1.68 1.61 1.54 1.46 1.34 1.21 1.20 1.15 1.14 1.19 1.20 1.13 1.14 1.17 1.29 1.32 1.31 1.30
0.46 0.47 0.50 0.50 0.52 0.52 0.51 0.51 0.50 0.50 0.49 0.48 0.48 0.49 0.51 0.52 0.52 0.52 0.52 0.53 0.56 0.76 0.97 1.25 1.58 1.73 1.65 1.65 1.58 1.45 1.34 1.24 1.20 1.16 1.17 1.24 1.18 1.13 1.17 1.16 1.24 1.30 1.32
0.44 0.47 0.47 0.48 0.52 0.52 0.50 0.50 0.49 0.49 0.49 0.47 0.48 0.50 0.51 0.51 0.49 0.49 0.48 0.50 0.54 0.61 0.66 0.84 0.96 1.39 1.57 1.66 1.62 1.58 1.44 1.37 1.24 1.19 1.16 1.21 1.26 1.17 1.15 1.13 1.17 1.26 1.31
0.45 0.46 0.49 0.51 0.51 0.51 0.51 0.51 0.50 0.50 0.49 0.48 0.48 0.48 0.48 0.49 0.50 0.48 0.47 0.49 0.54 0.56 0.57 0.60 0.80 0.97 1.16 1.43 1.52 1.76 1.53 1.41 1.33 1.24 1.20 1.19 1.23 1.23 1.19 1.15 1.14 1.15 1.23
0.46 0.47 0.48 0.51 0.50 0.51 0.51 0.51 0.51 0.50 0.48 0.47 0.48 0.47 0.48 0.48 0.49 0.48 0.46 0.48 0.50 0.49 0.53 0.58 0.61 0.83 0.95 1.17 1.24 1.39 1.44 1.38 1.38 1.34 1.23 1.22 1.22 1.22 1.22 1.22 1.16 1.13 1.13
0.46 0.48 0.49 0.49 0.50 0.49 0.50 0.50 0.50 0.48 0.48 0.48 0.46 0.46 0.47 0.47 0.46 0.46 0.46 0.47 0.48 0.46 0.46 0.51 0.57 0.68 0.80 0.84 1.15 1.11 1.28 1.35 1.35 1.29 1.31 1.25 1.23 1.25 1.22 1.22 1.23 1.16 1.11
0.46 0.46 0.46 0.45 0.47 0.46 0.45 0.43 0.43 0.41 0.44 0.44 0.45 0.46 0.46 0.47 0.46 0.46 0.45 0.46 0.47 0.46 0.47 0.50 0.50 0.54 0.65 0.86 0.82 0.94 1.14 1.06 1.22 1.30 1.39 1.36 1.25 1.23 1.27 1.22 1.24 1.24 1.18
0.44 0.44 0.44 0.44 0.45 0.46 0.45 0.43 0.42 0.42 0.43 0.43 0.44 0.46 0.46 0.47 0.47 0.46 0.46 0.46 0.46 0.46 0.48 0.50 0.52 0.52 0.58 0.78 0.74 0.87 0.86 1.03 1.30 1.27 1.37 1.41 1.29 1.25 1.24 1.26 1.25 1.22 1.23
0.42 0.43 0.44 0.46 0.46 0.46 0.44 0.41 0.41 0.42 0.41 0.39 0.40 0.41 0.45 0.47 0.48 0.47 0.47 0.46 0.46 0.47 0.47 0.49 0.53 0.55 0.52 0.65 0.86 0.84 0.78 0.77 0.97 1.24 1.27 1.40 1.38 1.30 1.24 1.29 1.24 1.25 1.23
0.42 0.47 0.47 0.47 0.45 0.44 0.43 0.40 0.39 0.37 0.35 0.39 0.40 0.42 0.44 0.47 0.46 0.47 0.48 0.47 0.47 0.48 0.47 0.50 0.55 0.57 0.60 0.54 0.69 0.85 0.94 1.03 0.94 0.93 1.22 1.31 1.34 1.36 1.31 1.32 1.26 1.26 1.22
0.47 0.48 0.48 0.47 0.44 0.43 0.42 0.42 0.40 0.39 0.39 0.40 0.40 0.40 0.42 0.44 0.46 0.46 0.47 0.48 0.48 0.49 0.49 0.50 0.53 0.56 0.60 0.57 0.64 0.70 0.83 0.98 0.99 0.94 0.85 1.07 1.23 1.35 1.41 1.37 1.29 1.30 1.26
0.48 0.49 0.48 0.45 0.42 0.43 0.42 0.42 0.40 0.39 0.38 0.37 0.37 0.37 0.39 0.41 0.43 0.45 0.46 0.47 0.48 0.49 0.50 0.52 0.55 0.57 0.58 0.61 0.63 0.74 0.79 0.84 0.88 0.83 1.01 1.13 1.14 1.38 1.42 1.43 1.32 1.33 1.33

GFSSE_prec_pwat_159.txt.gz
Precipitable_Water
1.73 1.73 1.45 1.37 1.30 1.28 1.26 1.25 1.28 1.29 1.31 1.32 1.29 1.25 1.19 1.15 1.11 1.12 1.23 1.23 1.23 1.23 1.25 1.23 1.25 1.30 1.32 1.28 1.27 1.28 1.31 1.34 1.34 1.34 1.34 1.36 1.44 1.47 1.44 1.38 1.45 1.58 1.45
1.72 1.72 1.59 1.49 1.46 1.41 1.39 1.39 1.40 1.39 1.41 1.40 1.37 1.31 1.26 1.21 1.19 1.15 1.17 1.19 1.22 1.19 1.21 1.17 1.18 1.22 1.27 1.26 1.26 1.26 1.30 1.32 1.32 1.31 1.31 1.33 1.35 1.41 1.44 1.42 1.42 1.46 1.43
1.64 1.75 1.69 1.61 1.59 1.53 1.50 1.47 1.47 1.48 1.49 1.50 1.48 1.43 1.33 1.29 1.26 1.20 1.17 1.18 1.16 1.18 1.16 1.10 1.13 1.20 1.22 1.23 1.24 1.25 1.28 1.28 1.27 1.24 1.33 1.40 1.42 1.38 1.40 1.41 1.40 1.33 1.42
1.51 1.61 1.61 1.60 1.58 1.59 1.56 1.53 1.51 1.49 1.46 1.49 1.49 1.49 1.47 1.38 1.34 1.27 1.20 1.16 1.15 1.14 1.13 1.12 1.15 1.19 1.18 1.19 1.21 1.21 1.22 1.21 1.19 1.17 1.38 1.61 1.51 1.37 1.42 1.39 1.33 1.33 1.42
1.39 1.42 1.46 1.51 1.52 1.54 1.54 1.53 1.53 1.50 1.49 1.49 1.49 1.49 1.50 1.46 1.39 1.31 1.24 1.17 1.14 1.14 1.14 1.14 1.19 1.21 1.17 1.16 1.17 1.17 1.16 1.15 1.15 1.14 1.43 1.35 1.62 1.52 1.40 1.39 1.30 1.34 1.36
1.28 1.32 1.38 1.39 1.41 1.46 1.51 1.54 1.55 1.55 1.51 1.49 1.49 1.48 1.44 1.41 1.35 1.29 1.23 1.19 1.16 1.14 1.16 1.16 1.19 1.19 1.17 1.18 1.17 1.15 1.14 1.12 1.09 1.26 1.55 1.39 1.34 1.73 1.37 1.35 1.36 1.36 1.37
1.23 1.25 1.27 1.29 1.28 1.32 1.38 1.41 1.47 1.55 1.58 1.57 1.54 1.52 1.50 1.46 1.40 1.34 1.27 1.20 1.16 1.16 1.18 1.22 1.23 1.21 1.19 1.19 1.17 1.15 1.11 1.09 1.09 1.38 1.23 1.27 1.42 1.44 1.33 1.32 1.34 1.35 1.36
1.11 1.16 1.18 1.16 1.18 1.17 1.18 1.23 1.31 1.39 1.51 1.58 1.59 1.61 1.57 1.54 1.50 1.45 1.40 1.34 1.29 1.25 1.24 1.25 1.25 1.24 1.21 1.21 1.17 1.15 1.10 1.10 1.14 1.17 1.27 1.34 1.37 1.36 1.30 1.32 1.33 1.33 1.34
0.86 0.87 0.91 0.95 0.96 0.95 1.00 1.09 1.17 1.22 1.34 1.42 1.49 1.59 1.66 1.62 1.55 1.53 1.53 1.50 1.42 1.33 1.31 1.32 1.30 1.24 1.21 1.22 1.21 1.18 1.13 1.10 1.10 1.22 1.28 1.27 1.36 1.35 1.25 1.32 1.32 1.31 1.34
0.71 0.69 0.69 0.71 0.72 0.75 0.74 0.81 0.97 1.09 1.19 1.24 1.27 1.41 1.53 1.69 1.72 1.64 1.57 1.55 1.56 1.52 1.44 1.37 1.36 1.32 1.25 1.22 1.19 1.17 1.15 1.14 1.08 1.11 1.16 1.26 1.26 1.29 1.29 1.32 1.31 1.30 1.33
0.63 0.61 0.62 0.59 0.58 0.58 0.55 0.59 0.61 0.63 0.66 0.75 0.86 0.97 1.20 1.43 1.59 1.71 1.79 1.79 1.77 1.71 1.63 1.57 1.57 1.51 1.38 1.27 1.20 1.16 1.16 1.14 1.15 1.17 1.15 1.27 1.21 1.22 1.24 1.29 1.32 1.30 1.34
0.56 0.55 0.55 0.57 0.58 0.57 0.55 0.58 0.60 0.61 0.63 0.64 0.63 0.63 0.65 0.78 1.07 1.39 1.55 1.60 1.68 1.71 1.68 1.64 1.57 1.56 1.53 1.44 1.31 1.24 1.16 1.11 1.16 1.18 1.21 1.26 1.18 1.15 1.16 1.22 1.30 1.31 1.32
0.52 0.52 0.53 0.58 0.61 0.60 0.58 0.58 0.59 0.60 0.60 0.62 0.64 0.66 0.64 0.63 0.63 0.64 0.74 1.14 1.46 1.59 1.72 1.78 1.79 1.70 1.59 1.54 1.42 1.34 1.30 1.23 1.18 1.22 1.21 1.23 1.18 1.14 1.12 1.14 1.23 1.30 1.34
0.48 0.51 0.55 0.58 0.58 0.57 0.57 0.56 0.56 0.56 0.57 0.57 0.59 0.62 0.60 0.60 0.61 0.64 0.62 0.63 0.68 0.98 1.27 1.57 1.68 1.75 1.77 1.77 1.64 1.49 1.40 1.34 1.29 1.24 1.27 1.27 1.18 1.14 1.14 1.13 1.17 1.25 1.31
0.47 0.53 0.55 0.56 0.55 0.54 0.55 0.56 0.57 0.56 0.55 0.56 0.55 0.57 0.58 0.55 0.54 0.55 0.55 0.57 0.59 0.61 0.70 0.85 1.15 1.43 1.62 1.72 1.77 1.70 1.55 1.45 1.34 1.32 1.30 1.32 1.26 1.16 1.11 1.15 1.13 1.23 1.29
0.50 0.52 0.54 0.51 0.53 0.54 0.53 0.55 0.54 0.55 0.54 0.54 0.55 0.57 0.56 0.53 0.53 0.52 0.51 0.52 0.54 0.58 0.61 0.64 0.68 0.87 1.03 1.33 1.51 1.63 1.72 1.64 1.54 1.39 1.34 1.37 1.37 1.26 1.15 1.11 1.15 1.20 1.23
0.50 0.51 0.49 0.48 0.53 0.54 0.54 0.54 0.53 0.54 0.55 0.53 0.53 0.53 0.53 0.53 0.51 0.50 0.50 0.50 0.53 0.58 0.58 0.57 0.56 0.62 0.80 0.93 1.09 1.40 1.58 1.62 1.63 1.50 1.39 1.28 1.40 1.38 1.25 1.14 1.11 1.14 1.16
0.49 0.48 0.50 0.52 0.53 0.54 0.55 0.54 0.54 0.54 0.54 0.52 0.52 0.52 0.53 0.53 0.51 0.49 0.48 0.49 0.53 0.52 0.51 0.51 0.55 0.57 0.59 0.78 0.82 1.00 1.23 1.53 1.61 1.69 1.47 1.38 1.30 1.42 1.40 1.25 1.15 1.11 1.14
0.48 0.48 0.48 0.51 0.52 0.53 0.53 0.53 0.53 0.54 0.53 0.52 0.52 0.50 0.51 0.51 0.50 0.48 0.47 0.48 0.49 0.48 0.48 0.49 0.49 0.53 0.56 0.61 0.75 0.88 1.06 1.19 1.39 1.46 1.28 1.33 1.29 1.31 1.45 1.40 1.26 1.13 1.12
0.48 0.49 0.49 0.50 0.51 0.52 0.51 0.51 0.52 0.52 0.51 0.51 0.49 0.50 0.51 0.51 0.51 0.48 0.47 0.47 0.47 0.45 0.45 0.47 0.47 0.49 0.49 0.52 0.60 0.70 0.86 1.16 1.22 1.29 1.39 1.40 1.34 1.32 1.28 1.45 1.38 1.29 1.15
0.48 0.48 0.49 0.48 0.49 0.49 0.46 0.45 0.45 0.44 0.46 0.46 0.47 0.49 0.49 0.50 0.51 0.49 0.47 0.46 0.47 0.44 0.45 0.46 0.46 0.45 0.45 0.53 0.52 0.57 0.73 0.86 0.98 1.17 1.28 1.38 1.37 1.30 1.25 1.29 1.40 1.34 1.29
0.48 0.49 0.48 0.48 0.48 0.47 0.46 0.47 0.47 0.45 0.45 0.45 0.46 0.47 0.48 0.50 0.50 0.49 0.47 0.45 0.45 0.44 0.44 0.45 0.46 0.43 0.46 0.52 0.48 0.49 0.48 0.63 0.82 0.91 1.16 1.27 1.30 1.28 1.25 1.28 1.34 1.38 1.34
0.49 0.49 0.48 0.47 0.48 0.48 0.49 0.48 0.47 0.46 0.44 0.42 0.42 0.43 0.46 0.48 0.48 0.48 0.47 0.46 0.45 0.45 0.44 0.46 0.46 0.46 0.41 0.47 0.54 0.53 0.49 0.52 0.67 0.81 0.95 1.01 1.11 1.21 1.32 1.33 1.34 1.32 1.34
0.48 0.50 0.49 0.49 0.50 0.50 0.51 0.47 0.44 0.41 0.38 0.41 0.42 0.44 0.45 0.47 0.46 0.46 0.44 0.44 0.45 0.45 0.45 0.45 0.47 0.46 0.47 0.42 0.50 0.57 0.65 0.65 0.62 0.68 0.88 1.03 1.21 1.22 1.29 1.36 1.34 1.37 1.37
0.49 0.48 0.50 0.51 0.51 0.51 0.51 0.48 0.44 0.42 0.42 0.42 0.42 0.42 0.42 0.44 0.44 0.44 0.43 0.42 0.42 0.44 0.44 0.44 0.44 0.45 0.48 0.48 0.48 0.49 0.54 0.66 0.74 0.73 0.71 0.95 1.16 1.22 1.31 1.35 1.35 1.48 1.47
0.49 0.52 0.52 0.52 0.51 0.52 0.49 0.46 0.44 0.41 0.40 0.39 0.38 0.38 0.38 0.40 0.41 0.41 0.40 0.41 0.42 0.42 0.42 0.43 0.45 0.45 0.47 0.50 0.52 0.54 0.53 0.53 0.60 0.69 0.71 0.83 0.86 1.33 1.35 1.39 1.40 1.45 1.54

GFSSE_prec_pwat_162.txt.gz
Precipitable_Water
1.59 1.70 1.57 1.39 1.30 1.29 1.27 1.29 1.35 1.35 1.33 1.33 1.29 1.27 1.20 1.17 1.16 1.17 1.21 1.18 1.24 1.23 1.22 1.21 1.20 1.23 1.25 1.24 1.24 1.25 1.28 1.30 1.29 1.28 1.25 1.27 1.29 1.33 1.39 1.45 1.43 1.50 1.46
1.57 1.68 1.60 1.48 1.46 1.43 1.40 1.38 1.39 1.41 1.41 1.39 1.38 1.35 1.31 1.25 1.23 1.22 1.20 1.19 1.22 1.22 1.24 1.19 1.14 1.16 1.21 1.22 1.22 1.22 1.25 1.28 1.26 1.23 1.23 1.23 1.21 1.28 1.35 1.45 1.42 1.45 1.38
1.52 1.62 1.63 1.55 1.53 1.49 1.44 1.44 1.43 1.44 1.49 1.48 1.45 1.41 1.35 1.32 1.28 1.28 1.24 1.22 1.21 1.19 1.19 1.17 1.15 1.16 1.20 1.20 1.19 1.19 1.20 1.21 1.18 1.16 1.25 1.53 1.47 1.30 1.30 1.40 1.40 1.34 1.35
1.43 1.52 1.53 1.51 1.50 1.49 1.47 1.46 1.43 1.44 1.45 1.48 1.52 1.50 1.44 1.41 1.36 1.31 1.29 1.24 1.19 1.19 1.17 1.16 1.16 1.18 1.17 1.17 1.17 1.17 1.15 1.13 1.11 1.10 1.33 1.73 1.61 1.40 1.31 1.36 1.34 1.28 1.35
1.31 1.41 1.42 1.44 1.45 1.46 1.46 1.46 1.47 1.45 1.45 1.46 1.45 1.51 1.53 1.49 1.45 1.38 1.31 1.25 1.20 1.16 1.14 1.16 1.17 1.19 1.17 1.16 1.16 1.15 1.14 1.11 1.07 1.10 1.33 1.57 1.42 1.33 1.42 1.32 1.30 1.28 1.31
1.25 1.28 1.34 1.33 1.32 1.34 1.36 1.39 1.41 1.45 1.46 1.48 1.50 1.50 1.48 1.45 1.43 1.40 1.34 1.27 1.25 1.21 1.17 1.16 1.19 1.20 1.17 1.16 1.18 1.16 1.13 1.09 1.05 1.13 1.46 1.57 1.34 1.33 1.45 1.30 1.31 1.28 1.29
1.20 1.24 1.24 1.26 1.23 1.22 1.29 1.29 1.30 1.36 1.40 1.48 1.49 1.52 1.55 1.56 1.52 1.45 1.38 1.32 1.28 1.23 1.21 1.20 1.23 1.25 1.21 1.17 1.16 1.16 1.13 1.08 1.04 1.15 1.49 1.55 1.27 1.38 1.34 1.26 1.29 1.29 1.29
1.09 1.13 1.14 1.14 1.14 1.10 1.07 1.12 1.15 1.20 1.24 1.34 1.44 1.47 1.50 1.56 1.58 1.53 1.49 1.44 1.39 1.34 1.29 1.26 1.26 1.27 1.24 1.20 1.19 1.15 1.13 1.08 1.03 1.12 1.22 1.39 1.16 1.32 1.23 1.25 1.25 1.29 1.28
0.86 0.85 0.85 0.87 0.89 0.89 0.86 0.90 0.99 1.09 1.16 1.21 1.29 1.34 1.42 1.54 1.65 1.71 1.60 1.53 1.51 1.50 1.46 1.40 1.34 1.30 1.27 1.21 1.18 1.18 1.15 1.11 1.06 1.05 1.19 1.51 1.36 1.29 1.26 1.22 1.19 1.27 1.27
0.74 0.72 0.70 0.70 0.70 0.68 0.64 0.64 0.68 0.71 0.75 0.81 0.91 0.98 1.09 1.28 1.41 1.60 1.71 1.78 1.69 1.65 1.59 1.54 1.55 1.49 1.42 1.34 1.23 1.20 1.19 1.17 1.11 1.06 1.09 1.30 1.36 1.24 1.21 1.21 1.18 1.21 1.25
0.65 0.63 0.66 0.64 0.63 0.60 0.57 0.62 0.62 0.63 0.64 0.65 0.65 0.64 0.68 0.74 0.92 1.16 1.38 1.55 1.67 1.74 1.77 1.76 1.70 1.63 1.58 1.52 1.47 1.35 1.26 1.19 1.14 1.09 1.07 1.26 1.37 1.30 1.23 1.17 1.15 1.20 1.23
0.60 0.59 0.60 0.60 0.59 0.58 0.60 0.62 0.62 0.63 0.62 0.64 0.66 0.65 0.66 0.66 0.68 0.66 0.70 0.79 1.12 1.39 1.56 1.62 1.72 1.72 1.71 1.66 1.54 1.49 1.42 1.28 1.19 1.08 1.14 1.31 1.48 1.35 1.26 1.12 1.09 1.15 1.22
0.57 0.56 0.56 0.57 0.59 0.59 0.60 0.60 0.58 0.58 0.59 0.61 0.62 0.62 0.63 0.64 0.65 0.66 0.65 0.67 0.66 0.70 0.88 1.18 1.47 1.66 1.71 1.72 1.69 1.62 1.55 1.50 1.43 1.26 1.17 1.28 1.36 1.33 1.26 1.15 1.10 1.08 1.17
0.53 0.53 0.55 0.58 0.59 0.60 0.59 0.56 0.56 0.55 0.57 0.56 0.59 0.59 0.57 0.54 0.56 0.55 0.56 0.56 0.59 0.62 0.63 0.72 0.79 0.98 1.33 1.59 1.64 1.57 1.64 1.70 1.62 1.53 1.30 1.32 1.36 1.33 1.27 1.19 1.14 1.12 1.13
0.49 0.53 0.54 0.59 0.59 0.58 0.55 0.55 0.56 0.55 0.55 0.57 0.57 0.57 0.55 0.53 0.52 0.53 0.51 0.53 0.55 0.59 0.60 0.60 0.62 0.64 0.67 0.90 1.23 1.49 1.57 1.67 1.67 1.65 1.61 1.48 1.34 1.36 1.33 1.28 1.16 1.17 1.14
0.50 0.52 0.56 0.57 0.58 0.56 0.53 0.54 0.54 0.56 0.56 0.55 0.56 0.55 0.55 0.54 0.50 0.49 0.50 0.51 0.54 0.56 0.55 0.54 0.53 0.55 0.57 0.62 0.73 0.97 1.24 1.42 1.51 1.72 1.59 1.57 1.49 1.48 1.41 1.36 1.31 1.20 1.17
0.52 0.56 0.54 0.55 0.56 0.53 0.53 0.54 0.56 0.55 0.56 0.54 0.55 0.56 0.54 0.54 0.50 0.48 0.48 0.49 0.51 0.51 0.49 0.50 0.50 0.51 0.53 0.60 0.58 0.69 0.89 1.06 1.22 1.45 1.68 1.55 1.50 1.43 1.42 1.37 1.37 1.31 1.24
0.55 0.54 0.56 0.56 0.54 0.54 0.53 0.55 0.56 0.56 0.55 0.55 0.54 0.53 0.51 0.51 0.50 0.46 0.46 0.47 0.49 0.49 0.48 0.47 0.48 0.45 0.46 0.50 0.53 0.54 0.65 0.75 0.94 1.16 1.35 1.44 1.59 1.50 1.49 1.41 1.40 1.34 1.30
0.52 0.52 0.51 0.53 0.52 0.53 0.54 0.55 0.55 0.55 0.54 0.54 0.52 0.51 0.49 0.50 0.49 0.46 0.45 0.45 0.46 0.46 0.47 0.47 0.46 0.45 0.42 0.42 0.44 0.48 0.51 0.59 0.72 0.94 1.04 1.21 1.45 1.53 1.40 1.36 1.41 1.38 1.32
0.52 0.52 0.51 0.52 0.52 0.52 0.53 0.53 0.53 0.53 0.55 0.54 0.51 0.50 0.49 0.49 0.49 0.47 0.45 0.45 0.45 0.43 0.43 0.44 0.44 0.47 0.46 0.44 0.44 0.42 0.44 0.49 0.54 0.74 0.94 1.12 1.24 1.33 1.47 1.36 1.36 1.36 1.39
0.51 0.49 0.49 0.49 0.51 0.50 0.49 0.47 0.47 0.47 0.51 0.52 0.50 0.50 0.50 0.51 0.50 0.48 0.45 0.44 0.44 0.42 0.42 0.43 0.42 0.41 0.42 0.47 0.41 0.38 0.38 0.40 0.40 0.55 0.82 0.93 1.12 1.23 1.28 1.32 1.37 1.36 1.40
0.49 0.49 0.49 0.50 0.52 0.51 0.49 0.50 0.51 0.51 0.51 0.50 0.48 0.49 0.50 0.50 0.50 0.48 0.45 0.44 0.44 0.42 0.41 0.41 0.40 0.38 0.40 0.43 0.38 0.39 0.31 0.33 0.48 0.60 0.72 0.81 0.90 1.13 1.28 1.37 1.39 1.34 1.32
0.50 0.50 0.51 0.52 0.52 0.51 0.50 0.52 0.52 0.51 0.49 0.46 0.45 0.45 0.48 0.50 0.49 0.48 0.45 0.44 0.42 0.42 0.39 0.40 0.40 0.38 0.34 0.40 0.44 0.42 0.34 0.31 0.38 0.49 0.63 0.75 0.95 0.90 0.96 1.20 1.34 1.35 1.34
0.51 0.54 0.54 0.53 0.52 0.52 0.53 0.51 0.49 0.45 0.42 0.43 0.44 0.45 0.47 0.49 0.48 0.46 0.43 0.42 0.41 0.41 0.39 0.39 0.41 0.40 0.40 0.35 0.41 0.47 0.49 0.48 0.37 0.30 0.43 0.66 0.81 0.97 1.09 1.05 1.30 1.44 1.34
0.55 0.57 0.56 0.54 0.52 0.54 0.54 0.52 0.50 0.46 0.45 0.45 0.45 0.43 0.43 0.44 0.45 0.44 0.41 0.41 0.40 0.39 0.39 0.39 0.38 0.39 0.40 0.39 0.40 0.41 0.44 0.47 0.51 0.45 0.34 0.42 0.68 0.89 1.15 1.21 1.23 1.25 1.32
0.56 0.57 0.57 0.55 0.55 0.56 0.55 0.55 0.51 0.47 0.44 0.41 0.40 0.38 0.39 0.40 0.40 0.41 0.39 0.39 0.38 0.38 0.37 0.37 0.38 0.38 0.39 0.41 0.42 0.43 0.42 0.41 0.43 0.46 0.45 0.45 0.50 0.66 0.97 1.21 1.26 1.38 1.45

GFSSE_prec_pwat_165.txt.gz
Precipitable_Water
1.63 1.66 1.54 1.40 1.34 1.37 1.37 1.35 1.37 1.36 1.34 1.30 1.28 1.23 1.19 1.16 1.13 1.15 1.15 1.18 1.22 1.20 1.18 1.13 1.12 1.15 1.19 1.19 1.19 1.20 1.25 1.28 1.28 1.32 1.27 1.29 1.28 1.27 1.35 1.43 1.49 1.42 1.39
1.68 1.77 1.61 1.45 1.43 1.43 1.41 1.39 1.38 1.41 1.42 1.42 1.38 1.33 1.27 1.22 1.20 1.18 1.15 1.15 1.18 1.19 1.18 1.14 1.09 1.11 1.16 1.15 1.16 1.19 1.23 1.24 1.25 1.24 1.28 1.32 1.29 1.33 1.34 1.39 1.45 1.37 1.32
1.64 1.69 1.59 1.50 1.44 1.42 1.41 1.41 1.40 1.39 1.40 1.45 1.44 1.42 1.38 1.30 1.28 1.25 1.23 1.18 1.16 1.16 1.17 1.15 1.12 1.13 1.14 1.12 1.11 1.14 1.16 1.17 1.22 1.17 1.32 1.54 1.47 1.49 1.37 1.40 1.42 1.29 1.32
1.53 1.52 1.50 1.49 1.46 1.44 1.39 1.37 1.37 1.38 1.38 1.39 1.42 1.44 1.45 1.44 1.38 1.35 1.29 1.27 1.21 1.16 1.16 1.15 1.16 1.14 1.15 1.11 1.08 1.10 1.11 1.11 1.21 1.15 1.26 1.51 1.47 1.46 1.40 1.38 1.36 1.28 1.31
1.31 1.40 1.41 1.42 1.41 1.38 1.38 1.38 1.36 1.34 1.35 1.39 1.42 1.44 1.47 1.48 1.48 1.41 1.35 1.27 1.26 1.21 1.18 1.16 1.16 1.16 1.16 1.11 1.11 1.10 1.09 1.09 1.16 1.16 1.20 1.52 1.44 1.40 1.38 1.41 1.30 1.29 1.29
1.24 1.28 1.31 1.30 1.26 1.28 1.29 1.33 1.34 1.34 1.33 1.35 1.40 1.44 1.46 1.46 1.46 1.42 1.37 1.32 1.28 1.25 1.21 1.20 1.18 1.19 1.17 1.12 1.11 1.11 1.10 1.08 1.10 1.14 1.25 1.49 1.68 1.47 1.32 1.28 1.23 1.25 1.31
1.19 1.19 1.20 1.19 1.13 1.14 1.16 1.19 1.21 1.23 1.23 1.27 1.34 1.43 1.45 1.49 1.50 1.51 1.48 1.41 1.34 1.30 1.25 1.20 1.19 1.20 1.20 1.14 1.10 1.10 1.09 1.07 1.07 1.09 1.28 1.42 1.50 1.33 1.40 1.26 1.24 1.23 1.26
1.07 1.06 1.08 1.09 1.05 0.97 0.99 1.03 1.09 1.11 1.09 1.15 1.19 1.30 1.38 1.46 1.51 1.53 1.56 1.56 1.50 1.43 1.40 1.37 1.31 1.25 1.23 1.18 1.13 1.10 1.10 1.08 1.04 1.02 1.19 1.26 1.47 1.53 1.32 1.27 1.27 1.23 1.26
0.83 0.85 0.84 0.86 0.85 0.83 0.78 0.81 0.81 0.86 0.92 0.98 1.03 1.09 1.11 1.21 1.34 1.42 1.55 1.59 1.61 1.59 1.53 1.48 1.43 1.39 1.37 1.32 1.28 1.19 1.15 1.12 1.05 1.00 1.06 1.21 1.53 1.44 1.45 1.24 1.23 1.22 1.25
0.72 0.70 0.70 0.69 0.69 0.68 0.65 0.67 0.65 0.66 0.68 0.66 0.65 0.69 0.80 0.88 0.92 1.05 1.27 1.40 1.55 1.62 1.71 1.78 1.71 1.63 1.51 1.48 1.45 1.41 1.35 1.26 1.15 1.07 1.02 1.11 1.27 1.33 1.41 1.26 1.15 1.20 1.21
0.68 0.65 0.64 0.63 0.65 0.63 0.62 0.62 0.63 0.65 0.67 0.65 0.62 0.61 0.61 0.64 0.69 0.72 0.80 0.91 1.11 1.30 1.46 1.58 1.67 1.75 1.73 1.66 1.62 1.57 1.47 1.37 1.32 1.20 1.05 1.04 1.16 1.34 1.49 1.43 1.23 1.13 1.15
0.63 0.61 0.64 0.62 0.60 0.59 0.59 0.60 0.62 0.63 0.62 0.63 0.60 0.59 0.58 0.61 0.62 0.62 0.62 0.62 0.64 0.70 0.85 1.05 1.29 1.41 1.54 1.66 1.68 1.68 1.62 1.55 1.47 1.38 1.23 1.11 1.25 1.32 1.49 1.42 1.33 1.12 1.09
0.62 0.61 0.60 0.59 0.57 0.57 0.57 0.59 0.60 0.59 0.58 0.60 0.58 0.55 0.53 0.54 0.53 0.53 0.53 0.54 0.56 0.61 0.63 0.66 0.75 0.84 1.06 1.26 1.42 1.60 1.64 1.61 1.61 1.61 1.53 1.38 1.23 1.37 1.43 1.45 1.35 1.20 1.07
0.57 0.55 0.57 0.57 0.58 0.59 0.59 0.59 0.58 0.55 0.56 0.56 0.56 0.53 0.51 0.51 0.49 0.48 0.49 0.52 0.54 0.55 0.53 0.54 0.55 0.58 0.62 0.71 0.87 1.11 1.33 1.50 1.63 1.60 1.57 1.46 1.41 1.41 1.44 1.48 1.41 1.28 1.13
0.51 0.53 0.56 0.59 0.59 0.60 0.59 0.60 0.57 0.54 0.54 0.55 0.54 0.53 0.52 0.48 0.45 0.47 0.47 0.50 0.49 0.50 0.49 0.48 0.49 0.48 0.49 0.54 0.60 0.68 0.90 1.14 1.39 1.47 1.47 1.36 1.47 1.62 1.59 1.47 1.46 1.39 1.26
0.53 0.54 0.57 0.58 0.61 0.61 0.59 0.59 0.56 0.55 0.55 0.56 0.55 0.52 0.52 0.50 0.47 0.46 0.46 0.46 0.44 0.46 0.47 0.47 0.45 0.45 0.44 0.46 0.48 0.55 0.59 0.75 0.95 1.27 1.34 1.35 1.29 1.66 1.72 1.63 1.55 1.46 1.42
0.54 0.55 0.56 0.58 0.60 0.59 0.59 0.57 0.56 0.57 0.56 0.54 0.53 0.52 0.52 0.50 0.46 0.45 0.44 0.42 0.42 0.45 0.45 0.45 0.44 0.43 0.42 0.43 0.41 0.43 0.49 0.53 0.65 0.83 1.04 1.22 1.34 1.48 1.47 1.60 1.58 1.52 1.42
0.56 0.56 0.58 0.58 0.57 0.57 0.56 0.57 0.58 0.59 0.57 0.55 0.53 0.52 0.51 0.49 0.47 0.44 0.42 0.41 0.42 0.42 0.41 0.40 0.40 0.38 0.39 0.40 0.40 0.41 0.42 0.42 0.45 0.55 0.73 0.95 1.19 1.40 1.58 1.63 1.61 1.54 1.50
0.55 0.55 0.55 0.55 0.52 0.54 0.54 0.56 0.58 0.59 0.57 0.55 0.53 0.51 0.51 0.49 0.46 0.43 0.41 0.41 0.42 0.41 0.40 0.39 0.39 0.38 0.36 0.37 0.38 0.39 0.40 0.40 0.39 0.40 0.43 0.59 0.91 1.19 1.28 1.40 1.47 1.51 1.45
0.53 0.53 0.54 0.53 0.51 0.52 0.54 0.55 0.56 0.55 0.56 0.55 0.53 0.52 0.50 0.49 0.46 0.43 0.41 0.41 0.41 0.40 0.39 0.39 0.37 0.38 0.37 0.37 0.35 0.35 0.35 0.39 0.42 0.44 0.44 0.48 0.62 0.92 1.14 1.22 1.30 1.63 1.59
0.52 0.52 0.52 0.51 0.51 0.50 0.51 0.50 0.50 0.49 0.52 0.53 0.54 0.53 0.51 0.49 0.47 0.43 0.41 0.40 0.40 0.39 0.38 0.39 0.37 0.35 0.35 0.37 0.33 0.29 0.32 0.37 0.42 0.46 0.49 0.52 0.58 0.76 0.99 1.07 1.29 1.39 1.47
0.51 0.51 0.51 0.52 0.52 0.51 0.53 0.53 0.53 0.53 0.54 0.54 0.54 0.53 0.51 0.50 0.47 0.44 0.41 0.40 0.39 0.38 0.38 0.39 0.37 0.34 0.35 0.38 0.32 0.31 0.23 0.27 0.40 0.35 0.46 0.51 0.55 0.62 0.73 0.98 1.11 1.23 1.40
0.53 0.53 0.53 0.54 0.54 0.54 0.54 0.53 0.53 0.54 0.53 0.52 0.50 0.49 0.49 0.49 0.47 0.44 0.42 0.40 0.40 0.40 0.38 0.38 0.38 0.36 0.32 0.36 0.38 0.34 0.27 0.23 0.26 0.33 0.33 0.42 0.51 0.57 0.63 0.76 0.95 1.11 1.28
0.57 0.57 0.56 0.56 0.56 0.57 0.56 0.53 0.50 0.48 0.46 0.49 0.48 0.48 0.47 0.47 0.46 0.44 0.42 0.41 0.40 0.40 0.38 0.38 0.39 0.37 0.36 0.31 0.35 0.38 0.39 0.37 0.28 0.22 0.30 0.35 0.45 0.51 0.59 0.65 0.77 0.91 1.11
0.59 0.59 0.59 0.59 0.59 0.58 0.57 0.57 0.55 0.53 0.52 0.51 0.49 0.46 0.45 0.45 0.45 0.42 0.41 0.40 0.38 0.38 0.37 0.37 0.37 0.36 0.36 0.34 0.33 0.33 0.33 0.35 0.38 0.33 0.24 0.26 0.35 0.45 0.51 0.60 0.68 0.84 0.98
0.59 0.57 0.56 0.54 0.54 0.56 0.58 0.59 0.57 0.54 0.51 0.48 0.45 0.42 0.42 0.42 0.41 0.40 0.39 0.38 0.38 0.37 0.36 0.35 0.35 0.36 0.35 0.35 0.35 0.35 0.33 0.30 0.30 0.31 0.29 0.30 0.31 0.37 0.48 0.55 0.63 0.69 0.88

GFSSE_prec_pwat_168.txt.gz
Precipitable_Water
1.65 1.68 1.47 1.40 1.37 1.35 1.35 1.35 1.36 1.36 1.35 1.34 1.32 1.26 1.20 1.17 1.16 1.15 1.14 1.16 1.18 1.17 1.15 1.12 1.11 1.13 1.15 1.14 1.13 1.13 1.20 1.21 1.21 1.23 1.27 1.31 1.28 1.31 1.37 1.45 1.45 1.32 1.33
1.77 1.71 1.60 1.48 1.41 1.40 1.39 1.41 1.40 1.41 1.42 1.42 1.41 1.38 1.30 1.25 1.20 1.17 1.13 1.13 1.16 1.15 1.13 1.11 1.09 1.10 1.13 1.12 1.11 1.12 1.17 1.16 1.18 1.20 1.24 1.25 1.34 1.39 1.34 1.41 1.45 1.28 1.26
1.67 1.68 1.64 1.50 1.43 1.39 1.41 1.43 1.41 1.39 1.40 1.41 1.41 1.41 1.40 1.36 1.30 1.26 1.22 1.16 1.13 1.15 1.15 1.11 1.10 1.10 1.10 1.08 1.08 1.11 1.13 1.11 1.13 1.14 1.27 1.35 1.49 1.42 1.50 1.39 1.43 1.27 1.23
1.62 1.59 1.58 1.49 1.46 1.45 1.45 1.42 1.37 1.36 1.37 1.40 1.43 1.43 1.42 1.41 1.40 1.38 1.31 1.25 1.17 1.12 1.12 1.13 1.11 1.09 1.08 1.06 1.05 1.07 1.11 1.09 1.12 1.12 1.18 1.38 1.52 1.43 1.44 1.47 1.39 1.27 1.23
1.39 1.44 1.44 1.43 1.45 1.44 1.44 1.40 1.36 1.33 1.30 1.30 1.34 1.41 1.44 1.46 1.45 1.41 1.37 1.30 1.23 1.18 1.15 1.12 1.12 1.12 1.07 1.06 1.04 1.07 1.09 1.08 1.09 1.12 1.10 1.34 1.51 1.50 1.43 1.47 1.37 1.26 1.25
1.27 1.32 1.34 1.32 1.35 1.33 1.31 1.29 1.28 1.25 1.23 1.20 1.25 1.31 1.38 1.40 1.44 1.46 1.43 1.38 1.32 1.26 1.22 1.18 1.16 1.19 1.16 1.12 1.07 1.07 1.08 1.09 1.04 1.08 1.11 1.29 1.49 1.54 1.44 1.47 1.28 1.22 1.23
1.20 1.27 1.27 1.18 1.15 1.20 1.16 1.16 1.13 1.12 1.10 1.11 1.17 1.25 1.34 1.38 1.43 1.46 1.50 1.50 1.49 1.44 1.36 1.30 1.26 1.23 1.21 1.19 1.15 1.10 1.10 1.10 1.08 1.03 1.08 1.21 1.28 1.41 1.42 1.46 1.28 1.24 1.22
1.17 1.18 1.13 1.11 1.05 0.96 0.96 0.98 0.99 0.98 0.97 1.00 1.08 1.14 1.20 1.24 1.27 1.33 1.47 1.47 1.48 1.50 1.48 1.46 1.41 1.36 1.31 1.27 1.22 1.17 1.13 1.13 1.10 1.06 1.05 1.12 1.19 1.36 1.44 1.39 1.39 1.23 1.21
1.01 0.94 0.93 0.89 0.85 0.85 0.85 0.84 0.81 0.78 0.74 0.77 0.85 0.93 0.93 0.97 1.03 1.15 1.26 1.37 1.40 1.48 1.50 1.54 1.56 1.58 1.50 1.41 1.35 1.33 1.29 1.23 1.17 1.13 1.10 1.13 1.14 1.36 1.32 1.39 1.36 1.27 1.18
0.77 0.74 0.75 0.75 0.73 0.72 0.74 0.70 0.67 0.66 0.63 0.64 0.64 0.65 0.71 0.75 0.77 0.79 0.86 1.01 1.19 1.37 1.47 1.54 1.56 1.63 1.73 1.73 1.63 1.55 1.46 1.41 1.32 1.22 1.20 1.16 1.14 1.18 1.28 1.35 1.38 1.34 1.23
0.70 0.67 0.68 0.68 0.66 0.67 0.66 0.65 0.62 0.65 0.63 0.62 0.59 0.58 0.57 0.57 0.58 0.58 0.62 0.65 0.70 0.79 1.00 1.25 1.40 1.43 1.51 1.61 1.69 1.69 1.63 1.58 1.49 1.38 1.32 1.26 1.19 1.19 1.27 1.32 1.40 1.37 1.29
0.67 0.66 0.65 0.64 0.64 0.64 0.63 0.61 0.61 0.63 0.63 0.62 0.57 0.55 0.54 0.52 0.53 0.53 0.54 0.56 0.57 0.59 0.60 0.64 0.74 0.88 1.06 1.22 1.33 1.42 1.53 1.58 1.61 1.53 1.45 1.40 1.35 1.26 1.35 1.38 1.51 1.46 1.35
0.70 0.65 0.63 0.63 0.62 0.60 0.60 0.60 0.61 0.63 0.64 0.61 0.56 0.54 0.52 0.50 0.50 0.50 0.50 0.50 0.49 0.49 0.49 0.51 0.53 0.56 0.60 0.70 0.80 1.01 1.26 1.38 1.46 1.51 1.50 1.52 1.53 1.45 1.41 1.45 1.43 1.53 1.43
0.65 0.61 0.60 0.60 0.59 0.59 0.61 0.59 0.60 0.62 0.62 0.59 0.56 0.54 0.49 0.46 0.46 0.46 0.46 0.45 0.44 0.46 0.44 0.46 0.45 0.46 0.46 0.48 0.51 0.54 0.66 0.89 1.21 1.40 1.45 1.46 1.48 1.51 1.49 1.58 1.44 1.48 1.50
0.53 0.54 0.55 0.58 0.58 0.60 0.59 0.59 0.60 0.61 0.61 0.59 0.57 0.55 0.50 0.46 0.45 0.46 0.44 0.43 0.43 0.44 0.43 0.42 0.41 0.40 0.41 0.42 0.43 0.43 0.46 0.52 0.64 0.87 1.10 1.38 1.43 1.42 1.45 1.47 1.59 1.52 1.51
0.52 0.53 0.56 0.56 0.58 0.60 0.59 0.59 0.60 0.62 0.61 0.58 0.57 0.55 0.52 0.49 0.46 0.44 0.42 0.41 0.41 0.41 0.41 0.40 0.39 0.38 0.38 0.40 0.39 0.40 0.39 0.42 0.47 0.54 0.74 0.93 1.16 1.37 1.34 1.41 1.57 1.66 1.57
0.55 0.57 0.57 0.58 0.61 0.61 0.61 0.62 0.63 0.62 0.60 0.57 0.56 0.55 0.52 0.49 0.46 0.43 0.41 0.39 0.40 0.40 0.39 0.38 0.37 0.37 0.35 0.36 0.35 0.36 0.37 0.37 0.38 0.39 0.46 0.66 0.82 1.08 1.25 1.37 1.38 1.63 1.69
0.57 0.57 0.59 0.60 0.60 0.62 0.63 0.64 0.63 0.61 0.60 0.58 0.58 0.55 0.52 0.49 0.46 0.42 0.40 0.39 0.41 0.39 0.38 0.36 0.35 0.32 0.32 0.32 0.31 0.32 0.33 0.35 0.36 0.39 0.41 0.45 0.54 0.73 0.90 1.18 1.29 1.51 1.54
0.53 0.53 0.53 0.55 0.56 0.57 0.59 0.61 0.62 0.61 0.59 0.59 0.59 0.56 0.52 0.49 0.47 0.42 0.40 0.40 0.41 0.39 0.37 0.35 0.34 0.33 0.31 0.31 0.31 0.31 0.32 0.35 0.38 0.41 0.43 0.46 0.46 0.53 0.70 0.86 1.13 1.36 1.50
0.53 0.53 0.52 0.52 0.53 0.55 0.56 0.58 0.59 0.58 0.58 0.59 0.58 0.55 0.53 0.50 0.47 0.43 0.41 0.40 0.39 0.37 0.35 0.35 0.33 0.33 0.33 0.31 0.30 0.28 0.31 0.36 0.39 0.42 0.39 0.44 0.54 0.50 0.55 0.70 0.92 1.07 1.26
0.57 0.57 0.56 0.54 0.54 0.54 0.53 0.52 0.52 0.51 0.54 0.56 0.57 0.56 0.54 0.52 0.49 0.45 0.41 0.40 0.39 0.36 0.35 0.35 0.34 0.32 0.32 0.33 0.28 0.26 0.30 0.35 0.40 0.39 0.37 0.39 0.48 0.50 0.53 0.59 0.75 0.92 1.12
0.61 0.60 0.58 0.57 0.55 0.55 0.55 0.56 0.57 0.55 0.56 0.56 0.56 0.55 0.55 0.52 0.48 0.45 0.42 0.40 0.39 0.38 0.36 0.36 0.35 0.32 0.34 0.35 0.30 0.28 0.22 0.24 0.33 0.31 0.36 0.37 0.40 0.47 0.51 0.55 0.60 0.75 0.88
0.60 0.60 0.61 0.59 0.57 0.57 0.57 0.58 0.57 0.57 0.57 0.55 0.53 0.53 0.54 0.51 0.48 0.45 0.42 0.40 0.39 0.38 0.36 0.36 0.37 0.36 0.32 0.35 0.38 0.31 0.24 0.20 0.23 0.29 0.29 0.33 0.35 0.38 0.41 0.51 0.55 0.60 0.72
0.62 0.64 0.61 0.60 0.58 0.59 0.59 0.56 0.54 0.53 0.50 0.53 0.54 0.55 0.53 0.52 0.48 0.46 0.43 0.41 0.39 0.38 0.37 0.38 0.39 0.37 0.36 0.31 0.34 0.35 0.35 0.33 0.24 0.19 0.26 0.28 0.33 0.33 0.38 0.41 0.49 0.56 0.59
0.65 0.64 0.62 0.61 0.60 0.61 0.59 0.57 0.53 0.51 0.51 0.53 0.53 0.51 0.50 0.50 0.46 0.43 0.41 0.40 0.38 0.38 0.37 0.36 0.36 0.35 0.36 0.33 0.31 0.31 0.31 0.31 0.34 0.27 0.19 0.20 0.25 0.29 0.33 0.39 0.41 0.46 0.56
0.66 0.64 0.60 0.58 0.57 0.58 0.56 0.55 0.52 0.49 0.49 0.48 0.47 0.44 0.44 0.45 0.44 0.43 0.42 0.40 0.39 0.36 0.36 0.35 0.36 0.35 0.34 0.34 0.34 0.33 0.31 0.28 0.27 0.27 0.24 0.23 0.22 0.24 0.29 0.34 0.39 0.46 0.50

GFSSE_prec_pwat_171.txt.gz
Precipitable_Water
1.54 1.53 1.56 1.43 1.35 1.36 1.36 1.34 1.34 1.33 1.35 1.35 1.28 1.24 1.25 1.24 1.23 1.23 1.23 1.20 1.22 1.20 1.18 1.13 1.10 1.11 1.11 1.12 1.09 1.11 1.17 1.17 1.17 1.18 1.22 1.26 1.26 1.27 1.33 1.37 1.37 1.28 1.30
1.62 1.59 1.55 1.42 1.38 1.40 1.40 1.38 1.39 1.39 1.39 1.39 1.37 1.33 1.31 1.29 1.27 1.24 1.22 1.21 1.21 1.18 1.15 1.12 1.10 1.10 1.10 1.10 1.07 1.07 1.11 1.14 1.13 1.14 1.16 1.23 1.36 1.47 1.42 1.40 1.41 1.28 1.25
1.62 1.63 1.63 1.54 1.40 1.42 1.40 1.39 1.41 1.40 1.38 1.40 1.40 1.40 1.38 1.36 1.35 1.33 1.30 1.25 1.20 1.17 1.16 1.13 1.08 1.10 1.11 1.10 1.08 1.08 1.10 1.11 1.10 1.11 1.20 1.20 1.37 1.44 1.44 1.46 1.43 1.30 1.24
1.59 1.62 1.64 1.53 1.46 1.45 1.43 1.41 1.35 1.32 1.32 1.35 1.40 1.41 1.43 1.44 1.43 1.41 1.37 1.32 1.26 1.23 1.19 1.17 1.16 1.11 1.09 1.11 1.08 1.09 1.08 1.09 1.10 1.09 1.10 1.20 1.44 1.39 1.42 1.45 1.45 1.29 1.25
1.45 1.47 1.48 1.46 1.43 1.46 1.45 1.37 1.30 1.24 1.22 1.25 1.26 1.31 1.36 1.41 1.43 1.42 1.39 1.34 1.29 1.26 1.24 1.20 1.17 1.16 1.14 1.12 1.10 1.08 1.10 1.12 1.12 1.09 1.07 1.14 1.37 1.39 1.41 1.43 1.38 1.30 1.23
1.33 1.35 1.35 1.37 1.37 1.37 1.34 1.24 1.20 1.17 1.20 1.21 1.22 1.25 1.31 1.37 1.39 1.43 1.45 1.45 1.43 1.37 1.30 1.25 1.21 1.18 1.21 1.19 1.19 1.11 1.10 1.11 1.12 1.10 1.07 1.12 1.34 1.42 1.34 1.36 1.38 1.33 1.27
1.21 1.25 1.28 1.25 1.25 1.22 1.19 1.10 1.12 1.10 1.11 1.13 1.15 1.18 1.23 1.29 1.34 1.35 1.37 1.41 1.44 1.43 1.42 1.39 1.37 1.31 1.26 1.24 1.25 1.24 1.17 1.14 1.10 1.08 1.06 1.09 1.27 1.26 1.39 1.31 1.30 1.28 1.29
1.17 1.20 1.17 1.11 1.07 1.04 1.01 1.03 1.02 0.99 0.98 1.01 1.05 1.10 1.15 1.16 1.20 1.23 1.24 1.27 1.34 1.42 1.43 1.44 1.46 1.45 1.43 1.36 1.29 1.28 1.27 1.23 1.19 1.10 1.06 1.07 1.13 1.20 1.38 1.51 1.29 1.28 1.27
1.10 1.10 1.05 0.97 0.91 0.93 0.93 0.93 0.88 0.83 0.79 0.78 0.83 0.88 0.89 0.90 0.92 0.94 0.97 1.07 1.18 1.31 1.43 1.46 1.46 1.48 1.52 1.56 1.55 1.46 1.35 1.33 1.29 1.24 1.20 1.17 1.16 1.20 1.35 1.35 1.40 1.32 1.27
0.95 0.91 0.86 0.82 0.82 0.78 0.77 0.79 0.75 0.69 0.63 0.62 0.63 0.63 0.66 0.66 0.70 0.73 0.77 0.80 0.80 0.83 1.02 1.29 1.42 1.47 1.52 1.55 1.63 1.64 1.63 1.54 1.43 1.38 1.34 1.30 1.28 1.24 1.22 1.38 1.38 1.40 1.35
0.76 0.74 0.74 0.72 0.72 0.71 0.70 0.71 0.70 0.65 0.61 0.59 0.57 0.60 0.58 0.56 0.57 0.59 0.62 0.60 0.61 0.60 0.62 0.64 0.76 0.99 1.25 1.39 1.49 1.54 1.59 1.63 1.58 1.50 1.45 1.38 1.38 1.36 1.29 1.28 1.43 1.45 1.40
0.69 0.69 0.69 0.70 0.69 0.68 0.67 0.65 0.63 0.60 0.59 0.56 0.56 0.57 0.57 0.53 0.54 0.53 0.52 0.51 0.51 0.51 0.51 0.52 0.53 0.56 0.63 0.71 0.86 1.09 1.29 1.41 1.47 1.51 1.49 1.48 1.40 1.42 1.38 1.31 1.39 1.47 1.53
0.75 0.72 0.70 0.69 0.68 0.65 0.61 0.60 0.60 0.60 0.58 0.57 0.57 0.56 0.55 0.51 0.50 0.49 0.46 0.45 0.46 0.45 0.44 0.44 0.44 0.44 0.45 0.46 0.48 0.56 0.66 0.76 1.02 1.28 1.45 1.50 1.49 1.42 1.44 1.44 1.42 1.50 1.56
0.70 0.69 0.67 0.65 0.62 0.59 0.59 0.59 0.60 0.57 0.58 0.58 0.58 0.58 0.54 0.50 0.48 0.46 0.43 0.42 0.42 0.42 0.40 0.41 0.40 0.41 0.41 0.41 0.41 0.40 0.43 0.48 0.55 0.69 0.98 1.32 1.42 1.46 1.45 1.47 1.45 1.48 1.58
0.62 0.62 0.60 0.60 0.59 0.60 0.60 0.61 0.60 0.59 0.60 0.60 0.58 0.58 0.56 0.52 0.48 0.46 0.44 0.44 0.42 0.42 0.40 0.38 0.37 0.37 0.36 0.37 0.38 0.37 0.38 0.39 0.42 0.48 0.53 0.69 1.02 1.30 1.39 1.48 1.44 1.43 1.55
0.61 0.57 0.57 0.58 0.61 0.62 0.62 0.63 0.62 0.62 0.62 0.61 0.60 0.59 0.57 0.53 0.49 0.46 0.43 0.42 0.41 0.41 0.39 0.38 0.35 0.34 0.34 0.34 0.33 0.34 0.34 0.36 0.37 0.39 0.42 0.45 0.59 0.74 1.07 1.34 1.39 1.43 1.45
0.58 0.59 0.59 0.60 0.62 0.63 0.63 0.64 0.63 0.62 0.62 0.60 0.58 0.58 0.55 0.53 0.50 0.47 0.43 0.40 0.40 0.40 0.38 0.37 0.35 0.34 0.32 0.32 0.30 0.31 0.32 0.33 0.34 0.36 0.39 0.42 0.46 0.53 0.66 0.95 1.15 1.34 1.43
0.55 0.54 0.55 0.57 0.57 0.59 0.60 0.61 0.61 0.61 0.60 0.59 0.59 0.57 0.55 0.53 0.50 0.47 0.44 0.41 0.40 0.38 0.36 0.34 0.32 0.31 0.30 0.29 0.27 0.27 0.29 0.33 0.37 0.40 0.42 0.44 0.45 0.48 0.52 0.64 0.85 1.13 1.27
0.58 0.55 0.53 0.55 0.55 0.57 0.59 0.61 0.60 0.60 0.59 0.59 0.58 0.56 0.53 0.52 0.51 0.48 0.44 0.42 0.42 0.38 0.35 0.34 0.32 0.31 0.29 0.28 0.27 0.27 0.29 0.32 0.36 0.40 0.38 0.40 0.48 0.48 0.48 0.51 0.59 0.75 1.04
0.60 0.60 0.57 0.57 0.58 0.60 0.61 0.61 0.60 0.60 0.60 0.60 0.58 0.57 0.55 0.53 0.51 0.48 0.45 0.44 0.42 0.38 0.36 0.35 0.32 0.32 0.31 0.29 0.28 0.27 0.29 0.34 0.39 0.40 0.37 0.41 0.42 0.48 0.52 0.48 0.51 0.58 0.72
0.63 0.62 0.62 0.59 0.60 0.60 0.60 0.58 0.57 0.55 0.57 0.58 0.59 0.57 0.55 0.54 0.52 0.48 0.46 0.44 0.43 0.39 0.37 0.36 0.34 0.31 0.30 0.32 0.27 0.24 0.27 0.33 0.38 0.31 0.36 0.37 0.37 0.42 0.43 0.49 0.52 0.54 0.58
0.62 0.63 0.63 0.61 0.60 0.60 0.60 0.61 0.59 0.57 0.57 0.58 0.59 0.57 0.56 0.54 0.52 0.49 0.47 0.45 0.43 0.39 0.37 0.36 0.35 0.33 0.33 0.34 0.28 0.28 0.21 0.22 0.28 0.30 0.33 0.35 0.33 0.36 0.37 0.41 0.42 0.50 0.54
0.61 0.63 0.65 0.64 0.62 0.59 0.59 0.59 0.58 0.58 0.57 0.55 0.55 0.55 0.55 0.54 0.53 0.51 0.49 0.45 0.43 0.41 0.37 0.37 0.37 0.35 0.31 0.34 0.35 0.30 0.24 0.22 0.25 0.30 0.30 0.31 0.32 0.31 0.33 0.35 0.38 0.41 0.48
0.59 0.65 0.66 0.65 0.62 0.60 0.59 0.57 0.57 0.55 0.50 0.53 0.52 0.52 0.52 0.52 0.49 0.47 0.45 0.43 0.41 0.41 0.39 0.40 0.40 0.38 0.36 0.32 0.35 0.36 0.36 0.33 0.25 0.22 0.28 0.28 0.29 0.28 0.30 0.32 0.34 0.38 0.42
0.64 0.65 0.68 0.67 0.64 0.62 0.59 0.58 0.55 0.52 0.53 0.53 0.51 0.48 0.49 0.46 0.43 0.41 0.40 0.40 0.39 0.41 0.43 0.43 0.41 0.37 0.37 0.35 0.33 0.33 0.33 0.33 0.34 0.28 0.21 0.22 0.26 0.29 0.30 0.31 0.32 0.35 0.39
0.64 0.65 0.65 0.63 0.61 0.60 0.59 0.57 0.54 0.52 0.50 0.48 0.47 0.45 0.43 0.41 0.39 0.38 0.37 0.36 0.35 0.35 0.36 0.36 0.35 0.34 0.35 0.35 0.34 0.33 0.31 0.30 0.29 0.28 0.25 0.25 0.24 0.26 0.30 0.32 0.32 0.32 0.37